Wind_Speed
13 13 13 13 12 12 12 12 12 12 12 11 11 11 11 11 11 11 11 11 10 10 10 10 9 9 9 8 8 7 7 6 6 5 5 5 5 5 5 5 5 5 5
14 14 14 14 13 13 13 14 14 13 14 13 13 13 13 12 12 12 12 12 12 11 11 11 11 10 10 10 9 9 8 8 7 7 6 6 6 6 7 7 6 6 6
15 15 15 14 14 14 14 14 15 15 15 15 15 15 15 14 14 13 13 13 13 13 12 12 12 11 11 11 11 10 9 9 9 8 8 8 8 7 7 8 8 8 8
16 16 16 15 15 15 15 15 15 16 16 16 16 16 16 16 15 15 15 14 14 14 14 13 13 12 12 12 12 12 11 11 10 10 10 9 9 9 9 9 10 9 9
17 17 17 17 16 16 16 16 16 17 17 18 18 18 17 17 16 16 17 16 15 15 15 15 15 14 14 13 13 13 13 12 12 12 12 11 11 10 10 10 11 11 10
19 19 19 18 18 18 17 17 18 18 19 19 19 19 19 19 18 18 18 18 17 17 17 16 16 16 16 15 14 15 15 14 14 14 13 13 13 12 12 12 11 12 12
20 20 20 20 20 19 19 19 19 19 19 20 20 20 20 20 20 20 19 19 19 18 18 18 17 17 16 16 16 16 16 16 15 15 15 15 15 14 14 13 13 13 13
21 21 22 22 22 21 21 21 21 21 21 22 21 21 21 22 22 22 22 21 20 20 20 19 19 19 18 18 18 18 17 17 17 17 16 16 16 16 16 16 15 15 15
23 23 23 23 23 23 23 23 23 23 23 23 23 23 23 24 24 23 23 23 23 22 22 21 21 21 21 20 20 20 19 18 18 18 18 17 17 17 17 16 17 16 16
24 24 25 25 25 25 24 25 25 25 24 24 24 24 24 25 25 25 25 25 25 25 24 24 24 24 23 23 22 22 21 21 20 20 20 20 19 19 18 18 18 18 18
26 26 26 26 26 27 27 26 26 26 26 26 26 25 26 26 26 26 26 26 26 26 26 26 26 26 26 26 25 24 24 23 23 22 22 22 21 21 20 20 20 20 20
27 27 27 28 28 28 28 28 29 28 28 28 28 27 28 28 28 28 27 27 27 27 28 28 28 27 27 27 27 27 26 26 25 24 24 24 24 23 23 23 22 22 21
30 30 30 30 30 30 30 31 30 30 30 29 30 30 29 30 30 30 30 30 29 29 29 30 30 29 29 28 28 28 28 27 27 26 25 25 25 25 25 25 25 24 23
32 32 32 33 33 33 32 32 32 32 32 32 31 31 31 31 31 32 31 31 32 31 31 31 31 32 31 31 31 30 29 29 29 28 27 27 27 26 27 27 27 26 25
35 35 35 35 35 35 35 35 35 35 35 35 34 34 33 33 33 33 33 33 33 33 33 33 33 33 33 33 33 32 32 31 31 30 29 29 29 28 28 28 28 28 27
36 37 38 38 38 38 38 38 38 38 38 38 38 36 35 35 35 35 35 35 35 35 35 35 35 35 35 35 35 35 35 34 33 32 31 31 30 30 29 29 29 29 28
39 39 40 40 41 41 41 40 40 40 41 41 40 40 39 38 37 37 37 37 37 37 37 37 37 37 37 37 36 37 37 37 36 34 34 33 32 31 30 29 30 30 30
41 42 42 43 42 43 43 43 42 43 43 43 43 43 42 41 40 40 39 39 40 39 39 39 38 39 39 39 38 38 38 39 38 37 37 36 35 34 32 32 31 31 31
44 44 44 45 45 45 45 45 45 45 45 45 44 44 44 43 43 42 42 41 41 40 40 41 41 40 40 40 40 40 40 39 39 39 39 38 37 36 35 34 34 33 32
46 46 47 47 47 47 47 47 47 47 46 46 46 45 45 45 44 44 44 43 43 42 42 42 42 42 42 42 42 42 42 41 40 40 40 39 39 38 37 36 36 35 34
47 48 48 49 49 50 50 49 49 49 49 48 48 47 47 46 46 45 45 44 44 44 44 43 44 43 43 43 44 43 43 43 42 42 42 41 41 40 39 38 38 37 36
47 49 49 50 51 52 52 52 52 51 50 50 50 49 50 50 49 48 48 47 46 46 45 46 45 45 45 44 44 45 45 45 44 44 44 43 42 42 42 40 39 39 38
48 50 51 52 52 53 53 53 53 53 53 53 52 51 51 51 51 51 51 51 50 49 48 47 46 47 47 46 46 46 46 46 46 46 45 45 45 44 43 42 42 41 40
47 49 51 52 53 53 54 54 54 54 54 54 53 53 53 54 53 53 53 52 52 51 50 50 49 48 48 47 46 47 47 47 47 47 47 47 47 46 45 44 43 42 42
46 48 49 51 52 53 54 55 55 55 54 55 55 54 55 55 55 54 54 54 53 53 52 51 51 50 49 48 48 47 47 47 47 48 47 47 47 47 47 46 45 44 44
45 47 48 50 51 52 53 54 55 55 55 55 55 55 55 55 56 55 56 55 54 54 54 53 53 53 52 51 50 49 49 49 48 49 49 48 48 48 48 47 46 45 44
Wind_Direction
249 249 246 245 244 242 240 238 237 237 236 235 236 233 231 228 228 228 225 223 224 224 222 220 219 218 217 217 217 216 215 214 215 215 212 212 210 209 210 212 211 212 213
251 250 248 247 245 244 244 242 241 240 240 239 239 238 235 232 231 231 230 228 228 228 228 226 225 224 222 222 223 221 220 219 219 221 221 221 222 222 221 222 222 224 226
251 251 250 249 248 246 245 244 243 242 243 242 242 241 238 235 233 234 233 232 232 232 231 229 228 227 227 226 226 226 225 224 225 227 229 231 232 233 231 229 228 229 232
249 250 250 249 248 248 247 247 245 244 244 244 243 244 242 238 236 236 236 236 236 235 234 233 231 231 229 230 229 229 231 231 232 233 234 235 237 238 237 236 234 235 236
249 250 251 250 249 248 249 249 248 246 245 244 243 245 244 241 240 240 239 238 237 237 236 236 235 234 233 233 233 233 235 236 236 237 238 239 241 240 240 241 241 240 240
249 249 250 250 250 249 249 250 250 249 247 246 245 245 244 243 242 241 239 238 238 238 238 238 238 238 238 237 237 238 238 239 239 239 241 243 244 244 244 243 244 242 242
250 250 249 249 250 250 250 250 250 251 249 247 247 247 246 244 243 242 241 240 239 239 240 240 240 240 240 240 240 240 240 241 242 243 244 244 245 245 246 245 246 244 244
251 251 250 249 250 251 251 251 251 251 250 249 249 248 247 246 246 244 244 244 243 242 241 241 240 241 241 241 243 242 242 243 244 246 245 244 245 246 247 247 246 246 246
252 252 252 251 251 251 251 251 251 251 251 251 250 249 249 249 248 247 246 247 246 245 244 243 241 242 242 243 244 245 245 245 246 246 245 246 247 247 248 248 246 246 247
252 252 253 253 252 252 252 252 252 250 250 250 250 250 249 249 247 247 247 247 247 246 245 245 244 244 244 244 245 246 247 248 249 249 248 248 248 247 248 249 247 247 248
252 252 253 253 253 253 253 253 252 251 250 249 249 250 248 247 247 247 247 247 246 246 246 245 245 245 245 245 246 246 248 250 251 251 250 250 249 248 248 249 249 250 250
253 253 253 254 254 255 255 255 253 252 252 251 250 250 249 248 249 249 248 247 247 247 247 246 245 245 245 246 246 247 249 250 250 250 250 251 250 249 248 249 250 250 251
254 254 254 254 255 255 255 255 255 254 253 252 251 250 251 251 251 250 249 248 249 248 247 247 246 246 247 248 247 247 249 250 250 249 250 250 251 251 250 250 250 251 251
254 254 254 255 256 256 256 256 255 254 254 254 254 253 252 252 252 251 250 250 250 250 249 248 247 247 248 249 248 249 249 250 250 249 250 250 251 252 251 250 251 251 252
255 255 255 255 256 256 256 256 256 255 255 255 254 254 254 253 252 252 252 252 252 251 251 250 249 248 248 249 249 250 250 250 250 249 250 250 251 252 252 251 250 251 252
255 256 256 256 257 257 257 256 256 256 255 255 255 254 254 253 252 252 252 253 252 251 251 250 249 249 249 249 250 250 250 250 250 249 249 249 249 249 250 250 250 250 251
256 256 256 256 257 257 257 256 255 256 256 256 256 255 255 254 253 253 253 253 253 252 252 251 251 250 250 250 250 250 250 249 249 250 249 250 249 248 249 249 250 251 252
256 256 256 257 257 257 257 256 256 256 256 256 256 255 256 254 254 254 254 255 255 254 254 253 253 252 251 250 250 250 250 250 249 250 250 250 250 249 249 249 250 251 252
257 256 256 256 257 257 258 257 257 257 257 256 256 255 255 255 254 254 254 255 254 254 255 255 254 253 252 251 251 251 250 250 250 249 250 250 249 249 249 249 250 250 251
258 257 257 257 256 256 256 257 257 257 257 256 255 254 255 255 255 254 255 255 254 253 254 255 254 253 253 252 251 251 250 249 249 249 249 249 249 249 249 249 250 250 250
260 258 257 256 256 256 256 256 257 256 256 256 255 254 254 254 254 255 255 255 255 253 253 254 254 253 254 253 252 251 250 250 250 250 249 249 248 248 248 249 249 249 250
261 259 257 256 256 255 255 256 256 256 256 256 255 254 254 254 255 255 256 256 255 254 254 255 255 254 254 254 254 252 251 250 250 250 250 250 249 249 249 249 249 250 250
262 259 257 256 256 255 255 255 255 255 256 256 255 254 254 255 255 255 256 256 257 256 255 255 255 255 254 253 253 253 252 251 250 250 250 250 250 250 250 250 249 250 251
264 261 259 257 256 255 255 255 255 255 256 256 256 255 255 255 255 255 256 256 256 256 256 255 255 254 254 253 252 253 253 252 251 250 249 249 250 250 250 250 250 250 251
267 263 260 257 256 255 255 254 254 254 255 256 256 256 255 256 256 256 256 256 257 257 255 255 254 254 253 253 253 252 252 252 252 251 250 250 249 250 250 251 251 250 251
269 266 261 258 257 256 255 255 254 254 255 255 256 256 255 256 256 256 256 257 257 257 256 255 254 254 253 253 253 252 251 251 251 251 251 250 249 249 250 250 251 251 251
Height
5848 5848 5849 5849 5850 5850 5851 5852 5852 5853 5853 5854 5855 5855 5855 5856 5856 5856 5857 5857 5858 5858 5859 5859 5860 5860 5861 5861 5862 5862 5862 5863 5863 5864 5864 5864 5864 5865 5865 5865 5865 5866 5866
5846 5846 5846 5847 5848 5848 5849 5849 5850 5851 5851 5852 5852 5853 5853 5854 5854 5855 5855 5856 5856 5857 5857 5858 5858 5859 5859 5860 5861 5861 5861 5862 5862 5863 5863 5863 5863 5864 5864 5864 5865 5865 5865
5843 5844 5844 5845 5845 5846 5846 5847 5847 5848 5849 5849 5850 5851 5851 5852 5852 5853 5853 5854 5854 5855 5855 5856 5857 5857 5858 5858 5859 5860 5860 5860 5861 5861 5862 5862 5862 5862 5863 5863 5864 5864 5864
5840 5841 5841 5842 5842 5843 5843 5844 5844 5845 5846 5846 5847 5848 5848 5849 5850 5850 5851 5851 5852 5852 5853 5854 5855 5855 5856 5857 5857 5858 5858 5859 5859 5860 5860 5860 5861 5861 5861 5862 5862 5862 5863
5837 5837 5838 5839 5839 5840 5840 5841 5841 5842 5843 5843 5844 5845 5845 5846 5847 5847 5848 5849 5849 5850 5851 5851 5852 5853 5854 5854 5855 5855 5856 5857 5857 5858 5858 5859 5859 5859 5859 5860 5860 5861 5861
5833 5834 5835 5835 5836 5836 5837 5837 5838 5838 5839 5840 5841 5842 5842 5843 5843 5844 5845 5846 5846 5847 5848 5849 5849 5850 5851 5852 5852 5853 5854 5854 5855 5855 5856 5857 5857 5857 5858 5858 5858 5859 5859
5829 5830 5831 5831 5832 5833 5833 5834 5834 5835 5835 5836 5837 5838 5839 5839 5840 5840 5841 5842 5843 5844 5845 5846 5846 5847 5848 5849 5849 5850 5851 5851 5852 5853 5853 5854 5854 5855 5855 5856 5856 5856 5857
5825 5825 5826 5827 5828 5828 5829 5830 5830 5831 5831 5832 5833 5834 5835 5835 5836 5837 5837 5838 5839 5840 5841 5842 5843 5844 5844 5845 5846 5847 5847 5848 5849 5850 5850 5851 5851 5852 5852 5853 5853 5854 5854
5820 5821 5821 5822 5823 5824 5824 5825 5826 5826 5827 5828 5829 5829 5830 5831 5832 5832 5833 5834 5835 5836 5837 5838 5839 5840 5841 5841 5842 5843 5844 5845 5845 5846 5847 5847 5848 5849 5849 5850 5850 5851 5851
5815 5816 5816 5817 5818 5818 5819 5820 5821 5821 5822 5823 5824 5824 5825 5825 5826 5827 5828 5829 5830 5831 5832 5833 5834 5835 5836 5837 5838 5839 5840 5840 5841 5842 5843 5844 5844 5845 5846 5846 5847 5847 5848
5809 5810 5811 5811 5812 5813 5814 5814 5815 5816 5816 5817 5818 5819 5820 5820 5821 5822 5823 5823 5824 5825 5826 5828 5829 5830 5831 5832 5833 5834 5835 5836 5837 5837 5838 5839 5840 5841 5841 5842 5843 5843 5844
5803 5804 5805 5805 5806 5807 5808 5808 5809 5810 5811 5811 5812 5813 5814 5814 5815 5816 5817 5817 5818 5819 5821 5822 5823 5824 5825 5826 5827 5828 5829 5830 5831 5832 5833 5834 5835 5836 5837 5838 5838 5839 5840
5796 5797 5798 5799 5799 5800 5801 5802 5803 5803 5804 5804 5805 5806 5807 5808 5809 5810 5811 5811 5812 5813 5814 5815 5817 5818 5819 5820 5821 5822 5823 5824 5825 5826 5828 5829 5830 5831 5832 5833 5834 5834 5835
5789 5790 5791 5792 5792 5793 5794 5795 5796 5796 5797 5797 5798 5799 5800 5801 5802 5803 5804 5804 5805 5806 5807 5808 5810 5811 5812 5814 5815 5816 5817 5818 5819 5821 5822 5823 5824 5825 5826 5827 5828 5829 5830
5781 5782 5783 5783 5784 5785 5786 5787 5788 5789 5789 5790 5790 5791 5792 5793 5794 5795 5796 5797 5798 5799 5800 5801 5803 5804 5805 5806 5808 5809 5810 5812 5813 5814 5816 5817 5818 5819 5820 5821 5823 5824 5825
5772 5773 5774 5774 5775 5776 5777 5778 5779 5780 5781 5781 5782 5783 5784 5785 5786 5787 5788 5789 5790 5791 5792 5793 5795 5796 5797 5799 5800 5802 5803 5805 5806 5807 5809 5810 5811 5812 5814 5815 5817 5818 5819
5762 5763 5764 5765 5766 5767 5768 5769 5770 5770 5771 5772 5773 5774 5775 5776 5777 5778 5779 5780 5781 5782 5783 5785 5786 5788 5789 5791 5792 5794 5795 5797 5798 5800 5801 5803 5804 5806 5807 5809 5810 5811 5813
5751 5752 5753 5754 5755 5756 5757 5759 5760 5760 5761 5762 5763 5764 5765 5766 5768 5768 5770 5771 5772 5773 5774 5776 5777 5779 5780 5782 5784 5785 5787 5788 5790 5792 5793 5795 5797 5798 5800 5802 5803 5805 5806
5739 5740 5741 5743 5744 5745 5746 5747 5748 5749 5750 5751 5752 5754 5755 5756 5757 5758 5760 5761 5762 5763 5765 5766 5768 5769 5771 5773 5774 5776 5778 5779 5781 5783 5785 5787 5789 5791 5792 5794 5796 5798 5799
5725 5727 5728 5730 5731 5732 5734 5735 5736 5737 5738 5739 5741 5742 5743 5745 5746 5747 5749 5750 5752 5753 5755 5756 5758 5759 5761 5762 5764 5766 5768 5770 5772 5774 5776 5778 5780 5782 5784 5786 5788 5790 5792
5711 5713 5714 5716 5717 5719 5720 5722 5723 5725 5726 5727 5728 5730 5731 5733 5734 5736 5737 5739 5740 5742 5744 5745 5747 5749 5750 5752 5754 5756 5758 5760 5762 5764 5766 5769 5771 5773 5775 5778 5780 5782 5784
5697 5698 5700 5701 5703 5705 5706 5708 5710 5711 5713 5714 5715 5717 5719 5721 5722 5724 5726 5727 5728 5730 5732 5733 5735 5737 5739 5741 5743 5745 5747 5750 5752 5754 5756 5759 5761 5763 5766 5768 5771 5773 5775
5683 5683 5685 5686 5688 5690 5692 5694 5696 5697 5699 5700 5702 5704 5706 5707 5710 5711 5713 5714 5716 5718 5720 5721 5723 5725 5727 5729 5730 5733 5735 5738 5741 5744 5746 5748 5751 5753 5756 5759 5761 5763 5765
5668 5668 5670 5671 5673 5674 5676 5679 5681 5683 5685 5687 5688 5690 5692 5694 5696 5698 5700 5701 5703 5705 5707 5709 5710 5712 5714 5716 5718 5720 5723 5725 5728 5732 5735 5737 5740 5743 5745 5748 5751 5753 5756
5655 5654 5655 5656 5658 5660 5662 5664 5666 5668 5670 5672 5674 5676 5677 5679 5681 5683 5685 5687 5689 5691 5693 5695 5697 5699 5701 5703 5706 5708 5710 5713 5715 5719 5723 5726 5729 5731 5734 5737 5740 5743 5746
5642 5641 5641 5642 5644 5645 5647 5649 5651 5653 5655 5657 5659 5661 5663 5664 5666 5668 5671 5673 5675 5677 5679 5681 5683 5685 5688 5690 5693 5696 5698 5701 5704 5706 5710 5713 5717 5720 5723 5726 5729 5732 5735